This is the latest recevied weather packets stored in our database for station/object K0QJ. If no packets are shown the sender has not sent any weather packets the latest 10 day(s).
| Time | Temp. | Humidity | Pressure | Rain* | Wind** | Luminosity | Snow |
|---|---|---|---|---|---|---|---|
| 1778038595 | 10° C | 77% | 1013 hPa | 0 mm | - | 0 W/m² | - |
| 1778038292 | 10° C | 78% | 1012.7 hPa | 0 mm | - | 0 W/m² | - |
| 1778037989 | 10° C | 79% | 1012.4 hPa | 0 mm | - | 0 W/m² | - |
| 1778037686 | 10.56° C | 79% | 1012.7 hPa | 0 mm | - | 0 W/m² | - |
| 1778037383 | 10.56° C | 80% | 1012.7 hPa | 0 mm | - | 0 W/m² | - |
| 1778037080 | 10.56° C | 82% | 1012.5 hPa | 0 mm | - | 0 W/m² | - |
| 1778036778 | 10.56° C | 83% | 1012.2 hPa | 0 mm | - | 0 W/m² | - |
| 1778036475 | 10° C | 87% | 1012.2 hPa | 0 mm | - | 0 W/m² | - |
| 1778036172 | 10° C | 90% | 1012.1 hPa | 0 mm | - | 0 W/m² | - |
| 1778035868 | 10° C | 91% | 1011.9 hPa | 0 mm | - | 0 W/m² | - |
| 1778035566 | 10° C | 91% | 1012.2 hPa | 0 mm | - | 0 W/m² | - |
| 1778035262 | 10° C | 91% | 1011.8 hPa | 0 mm | - | 0 W/m² | - |
| 1778034958 | 10° C | 91% | 1011.6 hPa | 0 mm | - | 0 W/m² | - |
| 1778034656 | 10° C | 91% | 1011.7 hPa | 0 mm | - | 0 W/m² | - |
| 1778034353 | 10° C | 91% | 1011.8 hPa | 0 mm | - | 0 W/m² | - |
| 1778034050 | 9.44° C | 91% | 1011.7 hPa | 0 mm | - | 0 W/m² | - |
| 1778033748 | 9.44° C | 91% | 1011.4 hPa | 0 mm | - | 0 W/m² | - |
| 1778033445 | 9.44° C | 91% | 1011.5 hPa | 0 mm | - | 0 W/m² | - |
| 1778033142 | 9.44° C | 91% | 1011.7 hPa | 0 mm | - | 0 W/m² | - |
| 1778032839 | 9.44° C | 90% | 1011.3 hPa | 0 mm | - | 0 W/m² | - |
| 1778032537 | 9.44° C | 90% | 1011 hPa | 0 mm | - | 0 W/m² | - |
| 1778032233 | 9.44° C | 90% | 1011.1 hPa | 0 mm | - | 0 W/m² | - |
| 1778031931 | 9.44° C | 89% | 1011.1 hPa | 0 mm | - | 0 W/m² | - |
| 1778031627 | 10° C | 89% | 1011 hPa | 0 mm | - | 0 W/m² | - |
| 1778031325 | 10° C | 89% | 1010.9 hPa | 0 mm | - | 0 W/m² | - |
* Rain latest hour (hover to see other rain measurements)
** Current wind speed in m/s (hover to see current wind gust speed)